Home > Weather > Fevik > Past weeks

Flag for Norway Past Weather in Fevik, Norway — Yesterday and Last 2 Weeks

Now
62 °F

Mild.


Feels Like: 62 °F
Forecast: 52 / 66 °F
Wind: 10 mph from Northwest

Location: Torungen Fyr

Current Time: Aug 29, 2016 at 9:54:00 PM

Latest Report: Aug 29, 2016 at 9:00 PM


Visibility: N/A

Pressure: 29.92 "Hg

Humidity: 56%

Dew Point: 47 °F

Location of FevikLocation

Past Weather in Fevik — Graph

°F

Fevik Temperature Yesterday

Maximum temperature yesterday: 60 °F (at 8:00 PM)
Minimum temperature yesterday: 55 °F (at 5:00 AM)
Average temperature yesterday: 57 °F

High & Low Weather Summary for the Past Weeks

 TemperatureHumidityPressure
High70 °F (Aug 26, 5:00 PM)98% (Aug 26, 3:00 AM)30.27 "Hg (Aug 26, 3:00 AM)
Low55 °F (Aug 24, 6:00 AM)46% (Aug 27, 2:00 PM)29.74 "Hg (Aug 26, 2:00 PM)
Average62 °F82%30.01 "Hg
* Reported Aug 14 8:00 PM — Aug 29 8:00 PM, Fevik, Weather by CustomWeather, © 2016

Note: Actual official high and low records may vary slightly from our data, if they occured in-between our weather recording intervals... More about our weather records

Advertising

Fevik Weather History for the Previous 24 Hours

Scroll right to see more
 ConditionsComfort  
Time TempWeatherWind HumidityBarometerVisibility
8:00 PM
Mon, Aug 29
65 °FMild.7 mph53%29.89 "HgN/A
7:00 PM67 °FMild.7 mph47%29.87 "HgN/A
6:00 PM67 °FMild.8 mph46%29.85 "HgN/A
5:00 PM65 °FMild.5 mph58%29.84 "HgN/A
4:00 PM65 °FMild.6 mph70%29.84 "HgN/A
3:00 PM64 °FMild.5 mph68%29.83 "HgN/A
2:00 PM64 °FMild.5 mph65%29.83 "HgN/A
1:00 PM65 °FMild.6 mph54%29.81 "HgN/A
12:00 PM64 °FMild.3 mph58%29.80 "HgN/A
11:00 AM62 °FCool.3 mph64%29.80 "HgN/A
10:00 AM59 °FCool.3 mph77%29.79 "HgN/A
9:00 AM56 °FCool.3 mph85%29.79 "HgN/A
8:00 AM55 °FCool.5 mph87%29.79 "HgN/A
7:00 AM55 °FCool.6 mph87%29.78 "HgN/A
6:00 AM55 °FCool.6 mph87%29.77 "HgN/A
5:00 AM55 °FCool.8 mph88%29.77 "HgN/A
4:00 AM55 °FCool.10 mph90%29.77 "HgN/A
3:00 AM55 °FCool.12 mph91%29.77 "HgN/A
2:00 AM55 °FCool.12 mph94%29.79 "HgN/A
1:00 AM55 °FCool.13 mph94%29.78 "HgN/A
12:00 AM56 °FCool.12 mph95%29.80 "HgN/A
11:00 PM
Sun, Aug 28
57 °FCool.15 mph94%29.81 "HgN/A
10:00 PM58 °FCool.15 mph93%29.83 "HgN/A
9:00 PM60 °FCool.14 mph82%29.83 "HgN/A
Weather by CustomWeather, © 2016

See weather overviewHow to use our weather pages